Location: Crescent
(42.8242°N, 73.7329°W)
Time: 03:02:21
(UTC+00:00)

Transit 4A - Pass Details

Date: 19 February 2026
Orbit: 864 x 977 km, 66.8° (Epoch: 7 March)

Event Time Altitude Azimuth Distance (km) Brightness Sun altitude
Rises 16:27:54 0° 332° (NNW) 3,605 10.5 35.3°
Reaches altitude 10° 16:30:31 10° 338° (NNW) 2,673 9.9 35.4°
Maximum altitude 16:36:36 51° 53° (NE) 1,202 8.8 35.6°
Drops below altitude 10° 16:42:45 10° 129° (SE) 2,713 11.1 35.7°
Sets 16:45:25 0° 134° (SE) 3,662 11.6 35.8°
